COSMOS 2251 DEB, 37316

Orbit data source: Space-Track

COSMOS 2251 DEB, 37316 is space debris in LEO originally from a launch on Wed, 16 Jun 1993 UTC launched from the Plesetsk Missile And Space Complex (PKMTR). The debris from Iridium 33, an American commercial communications satellite, has been tracked extensively since its accidental collision with the defunct Russian satellite Cosmos 2251 in 2009. This event, occurring at high speed in low Earth orbit (LEO), generated thousands of pieces of space debris, significantly increasing the risk of further collisions. The Iridium 33 debris cloud has impacted space traffic management and orbital debris mitigation strategies, making it a subject of ongoing study in space situational awareness.

Loading next visibility...
Identifier
37316, 1993-036BKG
Orbit
LEO
Country
Flag of CISCIS
Related business
Manufacturer
Unknown
Mission
Spacecraft
Bus & Motor
Unknown
Mass
Unknown
Launch date (UTC)
1993-06-16 (33 years ago)
Launch vehicle
Unknown
Launch site
Plesetsk Missile And Space Complex (PKMTR)
Object type
Payload
Rocket body
Debris
Shape & HBR
Unknown shape, 0.1 m
Radar Cross Section
Small (<0.1 m²)

Expand to show TLE details & history
Last TLE update: 18 hours ago

TLE from 18 hours ago
0 COSMOS 2251 DEB
1 37316U 93036BKG 26263.15232318  .00024769  00000-0  14320-2 0  9995
2 37316  74.0144 165.1037 0027845 175.4020 184.7435 15.11860372903738
Epoch: 2026-09-20T03:39Z
TLE epoch observation values (Epoch: 2026-09-20T03:39:20.722Z)
Latitude
-0°
Longitude
111.21675°
Altitude
552.403 km
Speed
7.575 km/s
True Right ascension
11h 00m 24s
True Declination
0° 00' 00"
Sunlit
Object was in daylight at epoch
Visualization orbit readout
Latitude
Unknown
Longitude
Unknown
Altitude
Unknown
Speed
Unknown
Apparent Right ascension
Unknown
Apparent Declination
Unknown
Sunlit
N/A
Visualization observer readout
Local Sidereal Time
15:03:00
Azimuth
Unknown
Elevation
Unknown
Doppler factor
Unknown
Orbital elements
Apogee altitude
547.3 km
Perigee altitude
508.839 km
Semi-major axis
6,906.206 km
Eccentricity
0.00278
Inclination
74.0144°
RAAN
165.1037°
Arg. of periapsis
175.402°
True anomaly
184.7172°
Mean anomaly
184.7435°
Eccentric anomaly
184.73034°
Mean motion
3.78167 °/min
Orbital period
95.2 mins
BSTAR
0.001432

Documentation

Showing up to 5 results
|